#timestamp,LO_Frequency,Hit 
1501437615.8,286047001.9,N
1501437635.6,286047001.7,N
1501437655.5,286047001.7,N
1501437675.3,286047001.6,N
1501437695.1,286046999.7,N
1501437715.9,286046999.9,N
1501437735.7,286047000.4,N
1501437755.5,286046999.7,N
1501437775.3,286047000.3,N
1501437795.2,286046999.8,N
1501437815.0,286047001.0,N
1501437815.9,286047001.0,N
1501437835.7,286047000.2,N
1501437855.6,286047001.2,N
1501437875.4,286047001.0,N
1501437895.2,286047000.5,N
1501437915.1,286047000.9,N
1501437916.0,286047000.9,N
1501437935.8,286047001.1,N
1501437955.6,286047001.1,N
1501437975.5,286047000.3,N
1501437995.3,286047000.6,N
1501438015.1,286047000.0,N
1501438035.8,286047000.1,N
1501438055.7,286047000.6,N
1501438075.5,286047000.3,N
1501438095.3,286047002.6,N
1501438115.2,286047002.3,N
1501438135.9,286047004.4,N
1501438155.7,286047001.4,N
1501438175.6,286047003.6,N
1501438195.4,286047003.6,N
1501438215.2,286047003.8,N
1501438235.1,286047004.4,N
1501438236.0,286047004.4,N
1501438255.8,286047001.4,N
1501438275.6,286047001.6,N
1501438295.5,286047003.5,N
1501438315.3,286047004.4,N
1501438335.1,286047001.3,N
1501438355.8,286047004.4,N
1501438375.7,286047003.8,N
1501438395.5,286047003.1,N
1501438415.3,286047003.1,N
1501438435.2,286047005.5,N
1501438455.9,286047001.3,N
1501438475.7,286047001.4,N
1501438495.6,286047001.7,N
1501438515.4,286047001.7,N
1501438535.2,286047002.2,N
1501438555.1,286047004.4,N
1501438556.0,286047004.4,N
1501438575.8,286047001.9,N
1501438595.6,286047004.4,N
1501438615.4,286047001.4,N
1501438635.3,286047001.6,N
1501438655.1,286047003.1,N
1501438675.8,286047003.3,N
1501438695.7,286047001.7,N
1501438715.5,286047001.3,N
1501438735.3,286047002.0,N
1501438755.2,286047001.9,N
1501438775.9,286046999.7,N
1501438795.7,286047002.4,N
1501438815.6,286047002.5,N
1501438835.4,286047002.8,N
1501438855.2,286047002.6,N
1501438875.0,286046999.8,N
1501438875.9,286046999.8,N
1501438895.8,286047004.1,N
1501438915.6,286047005.9,N
1501438935.4,286047003.2,N
1501438955.3,286047003.8,N
1501438975.1,286047004.1,N
1501438995.8,286047004.1,N
1501439015.7,286047002.0,N
1501439035.5,286047002.1,N
1501439055.3,286047004.0,N
1501439075.2,286047001.3,N
1501439095.9,286047003.9,N
1501439115.7,286047001.9,N
1501439135.5,286047004.3,N
1501439155.4,286047004.2,N
1501439175.2,286047001.4,N
1501439195.0,286047003.1,N
1501439195.9,286047003.1,N
1501439215.8,286047002.0,N
1501439235.6,286047002.7,N
1501439255.4,286047002.1,N
1501439275.3,286047004.1,N
1501439295.1,286047001.4,N
1501439296.0,286047001.4,N
1501439315.8,286047004.2,N
1501439335.7,286047001.7,N
1501439355.5,286047002.4,N
1501439375.3,286047003.0,N
1501439395.1,286047004.0,N
1501439415.9,286047003.4,N
1501439435.7,286047003.1,N
1501439455.5,286047004.3,N
1501439475.4,286047003.5,N
1501439495.2,286047001.4,N
1501439515.0,286047001.3,N
1501439515.9,286047001.3,N
1501439535.8,286047002.9,N
1501439555.6,286047003.8,N
1501439575.4,286047003.5,N
1501439595.3,286047003.5,N
1501439615.1,286047002.9,N
1501439616.0,286047002.9,N
1501439635.8,286047003.1,N
1501439655.7,286047002.9,N
1501439675.5,286047003.5,N
1501439695.3,286047003.3,N
1501439715.1,286047003.3,N
1501439735.9,286047001.5,N
1501439755.7,286047003.5,N
1501439775.5,286047005.4,N
1501439795.4,286047005.7,N
1501439815.2,286047002.9,N
1501439835.0,286047005.4,N
1501439835.9,286047005.4,N
1501439855.8,286047005.2,N
1501439875.6,286047005.4,N
1501439895.4,286047003.1,N
1501439915.3,286047003.8,N
1501439935.1,286047005.4,N
1501439936.0,286047005.4,N
1501439955.8,286047003.6,N
1501439975.6,286047003.1,N
1501439995.5,286047003.7,N
1501440015.3,286047004.1,N
1501440035.1,286047003.1,N
1501440055.9,286047004.7,N
1501440075.7,286047007.1,N
1501440095.5,286047004.5,N
1501440115.4,286047007.0,N
1501440135.2,286047004.8,N
1501440155.0,286047007.6,N
1501440155.9,286047007.6,N
1501440175.8,286047003.3,N
1501440195.6,286047005.5,N
1501440215.4,286047005.4,N
1501440235.2,286047005.6,N
1501440255.1,286047004.4,N
1501440256.0,286047004.4,N
1501440275.8,286047003.2,N
1501440295.6,286047003.8,N
1501440315.5,286047003.0,N
1501440335.3,286047001.8,N
1501440355.1,286047001.4,N
1501440375.9,286047004.2,N
1501440395.7,286047001.3,N
1501440415.5,286047001.8,N
1501440435.4,286047002.2,N
1501440455.2,286047002.2,N
1501440475.0,286046999.8,N
1501440475.9,286046999.8,N
1501440495.8,286046999.7,N
1501440515.6,286047000.2,N
1501440535.4,286047000.0,N
1501440555.2,286047002.3,N
1501440575.1,286047001.9,N
1501440576.0,286047001.9,N
1501440595.8,286047004.3,N
1501440615.6,286047001.5,N
1501440635.5,286047001.3,N
1501440655.3,286047003.8,N
1501440675.1,286047005.7,N
1501440695.9,286047005.9,N
1501440715.7,286047004.4,N
1501440735.5,286047003.5,N
1501440755.4,286047004.3,N
1501440775.2,286047003.7,N
1501440795.0,286047004.4,N
1501440795.9,286047004.4,N
1501440815.8,286047004.2,N
1501440835.6,286047002.0,N
1501440855.4,286047001.3,N
1501440875.2,286047003.7,N
1501440895.1,286047005.9,N
1501440896.0,286047005.9,N
1501440915.8,286047004.4,N
1501440935.6,286047002.9,N
1501440955.5,286047003.4,N
1501440975.3,286047004.0,N
1501440995.1,286047003.1,N
1501441015.9,286047003.1,N
1501441035.7,286047001.3,N
1501441055.5,286047004.1,N
1501441075.4,286047003.7,N
1501441095.2,286047003.6,N
1501441115.0,286047005.2,N
1501441115.9,286047005.2,N
1501441135.7,286047004.1,N
1501441155.6,286047003.7,N
1501441175.4,286047003.9,N
1501441195.2,286047003.5,N
